| time (UTC) | temp C | wind direction | speed KPH | gust KPH | rain 1hr cm | rain 24hr cm | rain mn cm | humidity % | barometer mb |
| 20260502130505 | 13 | 8 | 6.4 | 16.1 | 0.00 | 1.27 | 0.00 | 78 | 1021.8 |
| 20260502123504 | 12 | 6 | 6.4 | 16.1 | 0.00 | 1.60 | 0.00 | 82 | 1021.1 |
| 20260502123004 | 12 | 6 | 6.4 | 16.1 | 0.00 | 1.65 | 0.00 | 83 | 1021.1 |
| 20260502122504 | 11 | 9 | 4.8 | 16.1 | 0.00 | 1.73 | 0.00 | 84 | 1021.0 |
| 20260502122004 | 11 | 5 | 6.4 | 19.3 | 0.00 | 1.78 | 0.00 | 84 | 1020.9 |
| 20260502121504 | 11 | 1 | 4.8 | 19.3 | 0.00 | 1.85 | 0.00 | 85 | 1020.8 |
| 20260502121005 | 11 | 359 | 6.4 | 19.3 | 0.00 | 1.93 | 0.00 | 85 | 1020.9 |
| 20260502120504 | 11 | 360 | 6.4 | 19.3 | 0.00 | 2.01 | 0.00 | 86 | 1020.8 |
| 20260502115525 | 11 | 358 | 4.8 | 16.1 | 0.00 | 2.16 | 0.00 | 86 | 1020.7 |
| 20260502115025 | 11 | 359 | 4.8 | 16.1 | 0.00 | 2.26 | 0.00 | 87 | 1020.6 |
| 20260502114504 | 11 | 2 | 4.8 | 14.5 | 0.00 | 2.34 | 0.00 | 87 | 1020.7 |
| 20260502114025 | 11 | 2 | 4.8 | 14.5 | 0.00 | 2.44 | 0.00 | 87 | 1020.6 |
| 20260502113504 | 11 | 3 | 3.2 | 14.5 | 0.00 | 2.51 | 0.00 | 87 | 1020.6 |
| 20260502113005 | 11 | 2 | 3.2 | 14.5 | 0.00 | 2.62 | 0.00 | 88 | 1020.6 |
| 20260502112504 | 11 | 1 | 3.2 | 12.9 | 0.00 | 2.69 | 0.00 | 88 | 1020.5 |
| 20260502112004 | 11 | 360 | 3.2 | 12.9 | 0.00 | 2.77 | 0.00 | 88 | 1020.5 |
| 20260502111525 | 11 | 1 | 3.2 | 12.9 | 0.00 | 2.84 | 0.00 | 87 | 1020.5 |
| 20260502111004 | 11 | 2 | 3.2 | 8.0 | 0.00 | 2.95 | 0.00 | 87 | 1020.4 |
| 20260502110504 | 11 | 358 | 3.2 | 9.7 | 0.00 | 3.02 | 0.00 | 87 | 1020.4 |
| 20260502110004 | 11 | 355 | 3.2 | 9.7 | 0.00 | 3.10 | 0.00 | 87 | 1020.4 |
| 20260502105504 | 11 | 358 | 3.2 | 8.0 | 0.00 | 3.20 | 0.00 | 87 | 1020.4 |
| 20260502105004 | 11 | 1 | 3.2 | 8.0 | 0.00 | 3.28 | 0.00 | 87 | 1020.4 |
| 20260502104504 | 11 | 3 | 3.2 | 12.9 | 0.00 | 3.38 | 0.00 | 87 | 1020.4 |
| 20260502104004 | 11 | 4 | 3.2 | 12.9 | 0.00 | 3.48 | 0.00 | 87 | 1020.3 |
| 20260502103504 | 11 | 8 | 3.2 | 8.0 | 0.00 | 3.58 | 0.00 | 87 | 1020.3 |
| 20260502103004 | 11 | 9 | 3.2 | 8.0 | 0.00 | 3.71 | 0.00 | 87 | 1020.2 |
| 20260502102505 | 11 | 5 | 3.2 | 11.3 | 0.00 | 3.84 | 0.00 | 87 | 1020.1 |
| 20260502102004 | 11 | 5 | 3.2 | 11.3 | 0.00 | 3.96 | 0.00 | 87 | 1020.1 |
| 20260502101525 | 11 | 8 | 1.6 | 6.4 | 0.00 | 4.09 | 0.00 | 87 | 1020.0 |
| 20260502101004 | 11 | 10 | 3.2 | 8.0 | 0.00 | 4.24 | 0.00 | 87 | 1019.9 |
| 20260502100526 | 11 | 9 | 3.2 | 12.9 | 0.00 | 4.37 | 0.00 | 87 | 1019.8 |
| 20260502091504 | 11 | 1 | 3.2 | 9.7 | 0.00 | 5.08 | 0.00 | 88 | 1019.1 |
| 20260502091004 | 11 | 3 | 3.2 | 9.7 | 0.00 | 5.08 | 0.00 | 88 | 1019.0 |
| 20260502090504 | 11 | 6 | 3.2 | 14.5 | 0.00 | 5.13 | 0.00 | 88 | 1018.9 |
| 20260502071525 | 12 | 27 | 3.2 | 8.0 | 0.00 | 7.04 | 0.00 | 87 | 1018.7 |
| 20260502071004 | 12 | 18 | 3.2 | 8.0 | 0.00 | 7.04 | 0.00 | 87 | 1018.6 |
| 20260502070504 | 12 | 14 | 3.2 | 11.3 | 0.00 | 7.04 | 0.00 | 87 | 1018.7 |
| 20260502070004 | 12 | 13 | 3.2 | 11.3 | 0.00 | 7.04 | 0.00 | 87 | 1018.7 |
| 20260502065504 | 12 | 18 | 3.2 | 8.0 | 0.00 | 7.04 | 0.00 | 87 | 1018.7 |
| 20260502065004 | 12 | 19 | 3.2 | 11.3 | 0.00 | 7.04 | 0.00 | 86 | 1018.7 |
| 20260502064504 | 12 | 15 | 3.2 | 11.3 | 0.00 | 7.04 | 0.00 | 86 | 1018.8 |
| 20260502064004 | 12 | 17 | 3.2 | 6.4 | 0.00 | 7.04 | 0.00 | 86 | 1018.9 |
| 20260502063504 | 12 | 18 | 3.2 | 9.7 | 0.00 | 7.04 | 0.00 | 86 | 1018.8 |
| 20260502063003 | 12 | 14 | 3.2 | 9.7 | 0.00 | 7.11 | 0.00 | 85 | 1018.7 |
| 20260502062503 | 12 | 13 | 3.2 | 8.0 | 0.00 | 7.26 | 0.00 | 85 | 1018.6 |
| 20260502062003 | 12 | 18 | 4.8 | 12.9 | 0.00 | 7.49 | 0.00 | 84 | 1018.5 |
| 20260502061004 | 12 | 28 | 6.4 | 17.7 | 0.00 | 8.23 | 0.00 | 84 | 1018.2 |
| 20260502060504 | 12 | 24 | 8.0 | 17.7 | 0.00 | 8.59 | 0.00 | 84 | 1018.3 |
| 20260502060004 | 12 | 22 | 8.0 | 19.3 | 0.00 | 8.59 | 0.00 | 84 | 1018.1 |
| 20260502055503 | 12 | 30 | 9.7 | 19.3 | 0.00 | 8.59 | 0.00 | 84 | 1017.8 |
| 20260502055004 | 12 | 33 | 8.0 | 19.3 | 0.00 | 8.59 | 0.00 | 83 | 1017.6 |
| 20260502054504 | 12 | 34 | 6.4 | 22.5 | 0.00 | 8.59 | 0.00 | 83 | 1018.0 |
| 20260502054024 | 12 | 27 | 6.4 | 22.5 | 0.00 | 8.61 | 0.00 | 83 | 1018.3 |
| 20260502053504 | 12 | 15 | 6.4 | 16.1 | 0.00 | 8.61 | 0.00 | 83 | 1018.5 |
| 20260502053004 | 12 | 14 | 6.4 | 17.7 | 0.00 | 8.61 | 0.00 | 83 | 1018.7 |
| 20260502052504 | 12 | 16 | 8.0 | 17.7 | 0.00 | 8.61 | 0.00 | 83 | 1018.7 |
| 20260502052024 | 12 | 18 | 8.0 | 17.7 | 0.00 | 8.61 | 0.00 | 83 | 1018.7 |
| 20260502051504 | 12 | 18 | 6.4 | 17.7 | 0.00 | 8.61 | 0.00 | 84 | 1018.7 |
| 20260502051004 | 12 | 19 | 6.4 | 17.7 | 0.00 | 8.61 | 0.00 | 84 | 1018.6 |
| 20260502050503 | 12 | 20 | 6.4 | 17.7 | 0.00 | 8.61 | 0.00 | 85 | 1018.4 |
| 20260502050004 | 12 | 18 | 6.4 | 17.7 | 0.00 | 8.61 | 0.00 | 85 | 1018.4 |
| 20260502045504 | 12 | 14 | 6.4 | 17.7 | 0.00 | 8.61 | 8.61 | 85 | 1018.3 |
| 20260502045003 | 12 | 15 | 4.8 | 16.1 | 0.00 | 8.61 | 8.61 | 85 | 1018.4 |
| 20260502044504 | 12 | 20 | 4.8 | 16.1 | 0.00 | 8.61 | 8.61 | 85 | 1018.4 |
| 20260502044004 | 12 | 13 | 6.4 | 16.1 | 0.00 | 8.61 | 8.61 | 85 | 1018.4 |
| 20260502043504 | 12 | 6 | 8.0 | 17.7 | 0.00 | 8.64 | 8.61 | 85 | 1018.4 |
| 20260502043004 | 12 | 8 | 9.7 | 20.9 | 0.00 | 8.64 | 8.61 | 84 | 1018.4 |
| 20260502042525 | 12 | 11 | 8.0 | 20.9 | 0.00 | 8.66 | 8.61 | 84 | 1018.3 |
| 20260502042003 | 13 | 12 | 6.4 | 16.1 | 0.00 | 8.66 | 8.61 | 85 | 1018.1 |
| 20260502041504 | 13 | 12 | 6.4 | 16.1 | 0.00 | 8.66 | 8.61 | 84 | 1018.1 |
| 20260502041004 | 13 | 9 | 6.4 | 17.7 | 0.00 | 8.69 | 8.61 | 84 | 1018.2 |
| 20260502040504 | 13 | 11 | 8.0 | 20.9 | 0.00 | 8.71 | 8.61 | 84 | 1018.2 |
| 20260502040004 | 13 | 13 | 8.0 | 22.5 | 0.00 | 8.71 | 8.61 | 84 | 1018.2 |
| 20260502035503 | 13 | 14 | 8.0 | 22.5 | 0.00 | 8.71 | 8.61 | 84 | 1018.1 |
| 20260502035003 | 13 | 14 | 8.0 | 20.9 | 0.00 | 8.71 | 8.61 | 85 | 1018.0 |
| 20260502034525 | 13 | 17 | 8.0 | 22.5 | 0.00 | 8.71 | 8.61 | 85 | 1018.0 |
| 20260502034024 | 13 | 16 | 8.0 | 22.5 | 0.00 | 8.71 | 8.61 | 86 | 1017.9 |
| 20260502033504 | 13 | 16 | 8.0 | 20.9 | 0.00 | 8.71 | 8.61 | 86 | 1017.9 |
| 20260502033003 | 13 | 16 | 8.0 | 20.9 | 0.00 | 8.71 | 8.61 | 86 | 1017.7 |
| 20260502032504 | 13 | 13 | 8.0 | 25.7 | 0.00 | 8.71 | 8.61 | 86 | 1017.6 |
| 20260502032025 | 13 | 16 | 8.0 | 25.7 | 0.00 | 8.71 | 8.61 | 86 | 1017.4 |
| 20260502031504 | 13 | 18 | 8.0 | 20.9 | 0.00 | 8.71 | 8.61 | 87 | 1017.3 |
| 20260502031004 | 13 | 15 | 6.4 | 20.9 | 0.00 | 8.71 | 8.61 | 87 | 1017.3 |
| 20260502030503 | 13 | 20 | 6.4 | 17.7 | 0.00 | 8.71 | 8.61 | 87 | 1017.1 |
| 20260502030025 | 13 | 23 | 8.0 | 17.7 | 0.00 | 8.71 | 8.61 | 87 | 1017.2 |
| 20260502025503 | 13 | 24 | 9.7 | 20.9 | 0.00 | 8.71 | 8.61 | 87 | 1017.1 |
| 20260502025004 | 13 | 27 | 9.7 | 20.9 | 0.00 | 8.71 | 8.61 | 87 | 1017.0 |
| 20260502024504 | 13 | 27 | 9.7 | 20.9 | 0.00 | 8.71 | 8.61 | 87 | 1016.9 |
| 20260502024003 | 13 | 28 | 9.7 | 20.9 | 0.00 | 8.71 | 8.61 | 87 | 1016.6 |
| 20260502023504 | 13 | 26 | 9.7 | 22.5 | 0.00 | 8.71 | 8.61 | 87 | 1016.6 |
| 20260502023003 | 13 | 21 | 9.7 | 22.5 | 0.00 | 8.71 | 8.61 | 87 | 1016.7 |
| 20260502022525 | 13 | 19 | 8.0 | 22.5 | 0.00 | 8.71 | 8.61 | 88 | 1016.6 |
| 20260502022025 | 13 | 16 | 8.0 | 19.3 | 0.00 | 8.71 | 8.61 | 88 | 1016.5 |
| 20260502021503 | 13 | 10 | 8.0 | 22.5 | 0.00 | 8.71 | 8.61 | 88 | 1016.6 |
| 20260502021004 | 13 | 12 | 9.7 | 22.5 | 0.00 | 8.71 | 8.61 | 87 | 1016.4 |
| 20260502020503 | 13 | 18 | 9.7 | 20.9 | 0.00 | 8.71 | 8.61 | 87 | 1016.4 |
| 20260502020005 | 13 | 25 | 8.0 | 24.1 | 0.00 | 8.71 | 8.61 | 87 | 1016.2 |
| 20260502015524 | 13 | 20 | 9.7 | 24.1 | 0.00 | 8.71 | 8.61 | 87 | 1016.1 |
| 20260502015003 | 13 | 19 | 11.3 | 25.7 | 0.00 | 8.71 | 8.61 | 87 | 1016.0 |
| 20260502014525 | 13 | 17 | 12.9 | 25.7 | 0.00 | 8.71 | 8.61 | 86 | 1015.8 |
| 20260502014005 | 13 | 14 | 12.9 | 24.1 | 0.00 | 8.71 | 8.61 | 86 | 1015.7 |
| 20260502013503 | 14 | 17 | 11.3 | 22.5 | 0.00 | 8.71 | 8.61 | 86 | 1015.6 |
| 20260502013003 | 14 | 24 | 9.7 | 20.9 | 0.00 | 8.71 | 8.61 | 87 | 1015.6 |
| 20260502012524 | 14 | 25 | 11.3 | 20.9 | 0.00 | 8.71 | 8.61 | 86 | 1015.6 |
| 20260502012003 | 14 | 19 | 12.9 | 30.6 | 0.00 | 8.71 | 8.61 | 86 | 1015.4 |
| 20260502011524 | 14 | 17 | 12.9 | 30.6 | 0.00 | 8.71 | 8.61 | 86 | 1015.4 |
| 20260502011004 | 14 | 16 | 11.3 | 27.4 | 0.00 | 8.71 | 8.61 | 86 | 1015.2 |
| 20260502010504 | 14 | 17 | 11.3 | 24.1 | 0.00 | 8.71 | 8.61 | 86 | 1015.1 |
| 20260502010004 | 14 | 23 | 11.3 | 29.0 | 0.00 | 8.71 | 8.61 | 86 | 1015.1 |
| 20260502005504 | 14 | 27 | 12.9 | 29.0 | 0.00 | 8.71 | 8.61 | 86 | 1015.0 |
| 20260502005005 | 14 | 26 | 11.3 | 27.4 | 0.00 | 8.71 | 8.61 | 86 | 1014.8 |
| 20260502004504 | 14 | 22 | 9.7 | 22.5 | 0.00 | 8.71 | 8.61 | 87 | 1014.9 |
| 20260502004005 | 15 | 18 | 11.3 | 22.5 | 0.00 | 8.71 | 8.61 | 87 | 1014.5 |
| 20260502003525 | 15 | 17 | 12.9 | 25.7 | 0.00 | 8.71 | 8.61 | 87 | 1014.6 |
| 20260502003025 | 15 | 16 | 12.9 | 27.4 | 0.00 | 8.71 | 8.61 | 86 | 1014.4 |
| 20260502002505 | 15 | 21 | 12.9 | 27.4 | 0.00 | 8.71 | 8.61 | 86 | 1014.3 |
| 20260502002004 | 15 | 26 | 11.3 | 25.7 | 0.00 | 8.71 | 8.61 | 87 | 1014.2 |
| 20260502001525 | 15 | 22 | 9.7 | 25.7 | 0.00 | 8.71 | 8.61 | 87 | 1014.2 |
| 20260502001004 | 15 | 21 | 9.7 | 25.7 | 0.00 | 8.71 | 8.61 | 87 | 1014.2 |
| 20260502000505 | 15 | 29 | 11.3 | 27.4 | 0.00 | 8.71 | 8.61 | 87 | 1014.1 |
| 20260502000006 | 15 | 32 | 11.3 | 27.4 | 0.00 | 8.71 | 8.61 | 87 | 1014.0 |
| 20260501235504 | 15 | 29 | 8.0 | 25.7 | 0.00 | 8.71 | 8.61 | 87 | 1013.9 |
| 20260501235004 | 15 | 19 | 8.0 | 20.9 | 0.00 | 8.71 | 8.61 | 87 | 1013.9 |
| 20260501234504 | 15 | 19 | 9.7 | 25.7 | 0.00 | 8.71 | 8.61 | 87 | 1013.7 |
| 20260501234004 | 15 | 21 | 12.9 | 27.4 | 0.00 | 8.71 | 8.61 | 87 | 1013.5 |
| 20260501233504 | 15 | 22 | 11.3 | 27.4 | 0.00 | 8.71 | 8.61 | 87 | 1013.5 |
| 20260501233004 | 15 | 25 | 11.3 | 24.1 | 0.00 | 8.71 | 8.61 | 88 | 1013.4 |
| 20260501232504 | 15 | 24 | 9.7 | 25.7 | 0.00 | 8.71 | 8.61 | 89 | 1013.5 |
| 20260501232026 | 15 | 20 | 9.7 | 25.7 | 0.03 | 8.71 | 8.61 | 89 | 1013.4 |
| 20260501231525 | 15 | 16 | 11.3 | 24.1 | 0.03 | 8.71 | 8.61 | 89 | 1013.3 |
| 20260501231004 | 15 | 15 | 9.7 | 29.0 | 0.03 | 8.71 | 8.61 | 89 | 1013.0 |
| 20260501230504 | 15 | 15 | 11.3 | 24.1 | 0.03 | 8.71 | 8.61 | 90 | 1013.2 |
| 20260501230004 | 15 | 13 | 12.9 | 29.0 | 0.03 | 8.71 | 8.61 | 90 | 1013.2 |
| 20260501225504 | 15 | 10 | 12.9 | 29.0 | 0.03 | 8.71 | 8.61 | 90 | 1013.1 |
| 20260501225004 | 15 | 11 | 9.7 | 25.7 | 0.03 | 8.71 | 8.61 | 90 | 1013.1 |
| 20260501224505 | 15 | 7 | 9.7 | 27.4 | 0.03 | 8.71 | 8.61 | 91 | 1013.2 |
| 20260501224004 | 15 | 7 | 11.3 | 27.4 | 0.03 | 8.71 | 8.61 | 90 | 1013.2 |
| 20260501223504 | 15 | 7 | 9.7 | 24.1 | 0.03 | 8.71 | 8.61 | 91 | 1013.1 |
| 20260501223005 | 15 | 6 | 9.7 | 25.7 | 0.03 | 8.71 | 8.61 | 91 | 1012.9 |
| 20260501222504 | 15 | 8 | 8.0 | 25.7 | 0.03 | 8.71 | 8.61 | 91 | 1012.7 |
| 20260501222004 | 15 | 11 | 9.7 | 22.5 | 0.00 | 8.69 | 8.59 | 91 | 1012.7 |
| 20260501221504 | 15 | 12 | 9.7 | 22.5 | 0.00 | 8.69 | 8.59 | 91 | 1012.5 |
| 20260501221004 | 16 | 12 | 9.7 | 25.7 | 0.00 | 8.69 | 8.59 | 91 | 1012.2 |
| 20260501220525 | 16 | 13 | 9.7 | 25.7 | 0.00 | 8.69 | 8.59 | 91 | 1012.1 |
| 20260501220004 | 16 | 12 | 8.0 | 24.1 | 0.00 | 8.69 | 8.59 | 91 | 1012.2 |
| 20260501215504 | 16 | 11 | 9.7 | 22.5 | 0.00 | 8.69 | 8.59 | 91 | 1012.2 |
| 20260501215026 | 16 | 12 | 9.7 | 22.5 | 0.00 | 8.69 | 8.59 | 91 | 1012.2 |
| 20260501214505 | 16 | 16 | 8.0 | 22.5 | 0.00 | 8.69 | 8.59 | 91 | 1012.2 |
| 20260501214004 | 16 | 13 | 8.0 | 17.7 | 0.00 | 8.69 | 8.59 | 91 | 1012.1 |
| 20260501213525 | 16 | 4 | 8.0 | 19.3 | 0.00 | 8.69 | 8.59 | 91 | 1012.4 |
| 20260501213004 | 16 | 5 | 6.4 | 19.3 | 0.00 | 8.69 | 8.59 | 91 | 1012.3 |
| 20260501212525 | 16 | 5 | 8.0 | 16.1 | 0.00 | 8.69 | 8.59 | 91 | 1012.2 |
| 20260501212025 | 16 | 3 | 9.7 | 20.9 | 0.00 | 8.69 | 8.59 | 91 | 1011.9 |
| 20260501211504 | 16 | 1 | 8.0 | 20.9 | 0.00 | 8.69 | 8.59 | 90 | 1011.7 |
| 20260501211004 | 16 | 2 | 6.4 | 17.7 | 0.03 | 8.69 | 8.59 | 91 | 1011.9 |
| 20260501210504 | 16 | 5 | 8.0 | 20.9 | 0.03 | 8.69 | 8.59 | 91 | 1011.7 |
| 20260501210004 | 16 | 8 | 8.0 | 22.5 | 0.03 | 8.69 | 8.59 | 90 | 1011.6 |
| 20260501205504 | 16 | 6 | 8.0 | 22.5 | 0.03 | 8.69 | 8.59 | 90 | 1011.3 |
| 20260501205004 | 17 | 2 | 8.0 | 20.9 | 0.03 | 8.69 | 8.59 | 90 | 1011.5 |
| 20260501204504 | 17 | 359 | 8.0 | 20.9 | 0.03 | 8.69 | 8.59 | 89 | 1011.4 |
| 20260501204005 | 17 | 2 | 9.7 | 20.9 | 0.03 | 8.69 | 8.59 | 88 | 1011.5 |
| 20260501203526 | 17 | 14 | 11.3 | 22.5 | 0.03 | 8.69 | 8.59 | 88 | 1010.8 |
| 20260501203004 | 17 | 22 | 11.3 | 24.1 | 0.03 | 8.69 | 8.59 | 88 | 1010.5 |
| 20260501202504 | 17 | 26 | 12.9 | 24.1 | 0.03 | 8.69 | 8.59 | 88 | 1010.3 |
| 20260501202005 | 17 | 32 | 9.7 | 20.9 | 0.03 | 8.69 | 8.59 | 89 | 1010.3 |
| 20260501201504 | 17 | 25 | 9.7 | 20.9 | 0.03 | 8.69 | 8.59 | 90 | 1010.1 |
| 20260501201025 | 17 | 27 | 11.3 | 25.7 | 0.00 | 8.66 | 8.56 | 90 | 1010.4 |
| 20260501200504 | 17 | 35 | 12.9 | 27.4 | 0.00 | 8.66 | 8.56 | 90 | 1010.3 |
| 20260501200004 | 17 | 35 | 12.9 | 27.4 | 0.03 | 8.66 | 8.56 | 90 | 1010.3 |
| 20260501195505 | 17 | 32 | 12.9 | 29.0 | 0.03 | 8.66 | 8.56 | 92 | 1010.4 |
| 20260501195004 | 17 | 33 | 11.3 | 30.6 | 0.03 | 8.66 | 8.56 | 93 | 1010.5 |
| 20260501194504 | 17 | 32 | 12.9 | 30.6 | 0.03 | 8.66 | 8.56 | 93 | 1010.8 |
| 20260501194004 | 17 | 28 | 11.3 | 25.7 | 0.03 | 8.66 | 8.56 | 93 | 1010.6 |
| 20260501193504 | 17 | 21 | 11.3 | 27.4 | 0.03 | 8.66 | 8.56 | 94 | 1010.8 |
| 20260501193025 | 17 | 21 | 11.3 | 27.4 | 0.03 | 8.66 | 8.56 | 94 | 1010.8 |
| 20260501192504 | 17 | 21 | 9.7 | 22.5 | 0.03 | 8.66 | 8.56 | 95 | 1010.9 |
| 20260501192025 | 17 | 18 | 8.0 | 20.9 | 0.05 | 8.66 | 8.56 | 95 | 1011.2 |
| 20260501191504 | 17 | 17 | 9.7 | 22.5 | 0.05 | 8.66 | 8.56 | 95 | 1011.2 |
| 20260501191004 | 17 | 12 | 8.0 | 22.5 | 0.05 | 8.66 | 8.56 | 95 | 1011.3 |
| 20260501190504 | 16 | 8 | 6.4 | 14.5 | 0.05 | 8.66 | 8.56 | 95 | 1011.6 |
| 20260501190004 | 16 | 16 | 6.4 | 14.5 | 0.03 | 8.64 | 8.53 | 95 | 1012.1 |
| 20260501185504 | 16 | 17 | 4.8 | 14.5 | 0.05 | 8.64 | 8.53 | 95 | 1011.5 |
| 20260501185004 | 16 | 12 | 6.4 | 16.1 | 0.05 | 8.64 | 8.53 | 95 | 1011.8 |
| 20260501184504 | 16 | 18 | 8.0 | 16.1 | 0.05 | 8.64 | 8.53 | 95 | 1012.2 |
| 20260501184004 | 16 | 25 | 6.4 | 16.1 | 0.05 | 8.64 | 8.53 | 95 | 1011.5 |
| 20260501183504 | 16 | 9 | 6.4 | 16.1 | 0.05 | 8.64 | 8.53 | 95 | 1011.7 |
| 20260501183004 | 16 | 9 | 8.0 | 19.3 | 0.08 | 8.64 | 8.53 | 95 | 1011.9 |
| 20260501182504 | 16 | 15 | 9.7 | 20.9 | 0.08 | 8.64 | 8.53 | 95 | 1010.8 |
| 20260501182004 | 16 | 15 | 8.0 | 20.9 | 0.05 | 8.61 | 8.51 | 94 | 1011.1 |
| 20260501181526 | 16 | 4 | 4.8 | 17.7 | 0.05 | 8.61 | 8.51 | 94 | 1012.1 |
| 20260501181004 | 16 | 8 | 8.0 | 25.7 | 0.08 | 8.61 | 8.51 | 94 | 1012.3 |
| 20260501180504 | 16 | 9 | 8.0 | 25.7 | 0.08 | 8.61 | 8.51 | 94 | 1011.5 |
| 20260501180004 | 16 | 327 | 4.8 | 17.7 | 0.08 | 8.61 | 8.51 | 94 | 1011.8 |
| 20260501175504 | 16 | 343 | 6.4 | 17.7 | 0.08 | 8.59 | 8.48 | 94 | 1012.0 |
| 20260501175026 | 16 | 358 | 9.7 | 20.9 | 0.08 | 8.59 | 8.48 | 94 | 1011.5 |
| 20260501174505 | 16 | 6 | 9.7 | 20.9 | 0.08 | 8.59 | 8.48 | 94 | 1011.0 |
| 20260501174025 | 16 | 5 | 8.0 | 20.9 | 0.10 | 8.59 | 8.48 | 94 | 1010.8 |
| 20260501173526 | 16 | 8 | 8.0 | 19.3 | 0.10 | 8.59 | 8.48 | 94 | 1010.8 |
| 20260501173025 | 16 | 24 | 9.7 | 19.3 | 0.10 | 8.56 | 8.46 | 94 | 1010.0 |
| 20260501172504 | 17 | 38 | 8.0 | 22.5 | 0.10 | 8.56 | 8.46 | 94 | 1009.9 |
| 20260501172004 | 16 | 30 | 8.0 | 22.5 | 0.13 | 8.56 | 8.46 | 94 | 1009.8 |
| 20260501171525 | 16 | 26 | 6.4 | 17.7 | 0.13 | 8.56 | 8.46 | 94 | 1010.5 |
| 20260501171004 | 16 | 40 | 8.0 | 20.9 | 0.13 | 8.53 | 8.43 | 94 | 1011.1 |
| 20260501170504 | 16 | 42 | 9.7 | 20.9 | 0.15 | 8.53 | 8.43 | 94 | 1010.2 |
| 20260501170026 | 16 | 41 | 8.0 | 17.7 | 0.15 | 8.53 | 8.43 | 94 | 1010.6 |
| 20260501165505 | 17 | 37 | 8.0 | 16.1 | 0.15 | 8.51 | 8.41 | 95 | 1011.1 |
| 20260501165004 | 17 | 48 | 8.0 | 17.7 | 0.18 | 8.51 | 8.41 | 95 | 1010.9 |
| 20260501164504 | 17 | 59 | 9.7 | 20.9 | 0.18 | 8.51 | 8.41 | 95 | 1010.7 |
| 20260501164025 | 17 | 53 | 9.7 | 20.9 | 0.18 | 8.48 | 8.38 | 95 | 1010.8 |
| 20260501163525 | 17 | 41 | 9.7 | 27.4 | 0.20 | 8.48 | 8.38 | 96 | 1010.7 |
| 20260501163025 | 16 | 42 | 11.3 | 27.4 | 0.18 | 8.46 | 8.36 | 96 | 1010.3 |
| 20260501162504 | 16 | 44 | 11.3 | 20.9 | 0.20 | 8.46 | 8.36 | 95 | 1010.1 |
| 20260501162004 | 16 | 41 | 9.7 | 20.9 | 0.20 | 8.43 | 8.33 | 95 | 1010.6 |
| 20260501161504 | 16 | 50 | 9.7 | 20.9 | 0.20 | 8.43 | 8.33 | 96 | 1010.7 |
| 20260501161025 | 16 | 60 | 11.3 | 24.1 | 0.20 | 8.41 | 8.31 | 96 | 1010.7 |
| 20260501160505 | 16 | 63 | 12.9 | 24.1 | 0.20 | 8.38 | 8.28 | 95 | 1010.9 |
| 20260501160004 | 16 | 59 | 11.3 | 22.5 | 0.23 | 8.38 | 8.28 | 96 | 1010.9 |
| 20260501155525 | 16 | 56 | 9.7 | 20.9 | 0.20 | 8.36 | 8.26 | 96 | 1011.1 |
| 20260501154526 | 15 | 44 | 9.7 | 27.4 | 0.23 | 8.33 | 8.23 | 96 | 1011.4 |
| 20260501154004 | 15 | 48 | 9.7 | 27.4 | 0.23 | 8.31 | 8.20 | 95 | 1010.4 |
| 20260501153504 | 15 | 41 | 8.0 | 24.1 | 0.23 | 8.28 | 8.18 | 96 | 1011.1 |
| 20260501153004 | 15 | 18 | 6.4 | 17.7 | 0.25 | 8.28 | 8.18 | 96 | 1012.5 |
| 20260501152505 | 15 | 9 | 6.4 | 17.7 | 0.25 | 8.26 | 8.15 | 96 | 1013.6 |
| 20260501152004 | 15 | 21 | 8.0 | 20.9 | 0.25 | 8.23 | 8.13 | 96 | 1013.4 |
| 20260501151525 | 15 | 35 | 9.7 | 20.9 | 0.28 | 8.23 | 8.13 | 96 | 1012.3 |
| 20260501151004 | 15 | 40 | 9.7 | 19.3 | 0.28 | 8.20 | 8.10 | 96 | 1012.3 |
| 20260501150504 | 15 | 37 | 8.0 | 19.3 | 0.30 | 8.18 | 8.08 | 96 | 1012.3 |
| 20260501150006 | 15 | 32 | 8.0 | 16.1 | 0.30 | 8.15 | 8.05 | 96 | 1012.3 |
| 20260501145525 | 15 | 41 | 6.4 | 16.1 | 0.33 | 8.15 | 8.05 | 96 | 1012.7 |
| 20260501145004 | 15 | 50 | 8.0 | 19.3 | 0.36 | 8.13 | 8.03 | 96 | 1012.3 |
| 20260501144504 | 15 | 42 | 8.0 | 19.3 | 0.36 | 8.10 | 8.00 | 96 | 1012.1 |
| 20260501144004 | 15 | 33 | 8.0 | 17.7 | 0.36 | 8.08 | 7.98 | 96 | 1011.3 |
| 20260501143504 | 15 | 31 | 8.0 | 25.7 | 0.38 | 8.05 | 7.95 | 96 | 1011.5 |
| 20260501143025 | 15 | 34 | 9.7 | 25.7 | 0.41 | 8.03 | 7.92 | 96 | 1011.6 |
| 20260501142504 | 15 | 32 | 9.7 | 24.1 | 0.41 | 8.00 | 7.90 | 96 | 1011.5 |